EHI
15 11 11 17 21 24 25 25 27 29 28 22 19 17 14 13 11 11 11 11 10 9 9 10 11 11 8 5 2 2 3 4 6 7 6 4 4 5 6 5 3 3 3
13 10 10 14 18 21 23 24 26 27 24 20 16 14 12 12 12 12 13 12 10 8 8 9 9 9 7 5 3 2 3 4 5 7 7 4 4 4 4 3 2 2 2
10 9 10 11 15 19 22 23 24 22 18 15 12 10 10 11 11 11 11 10 8 6 6 6 6 6 4 3 2 1 2 2 3 6 6 5 4 3 2 1 1 1 2
11 10 9 8 11 17 23 25 22 17 13 11 10 9 9 10 10 9 7 6 4 3 3 4 4 3 2 1 1 0 0 1 1 3 3 3 4 2 1 0 1 2 3
13 12 10 7 8 16 23 25 20 12 10 10 8 7 8 8 7 5 4 3 2 2 2 2 2 2 1 0 0 0 0 0 0 1 1 1 2 2 0 0 1 2 3
13 14 12 8 8 14 20 20 14 9 7 7 6 5 5 5 4 4 3 2 1 1 0 1 1 1 0 0 0 0 0 0 0 0 0 0 1 1 1 0 1 2 2
11 11 10 8 9 13 15 13 8 4 4 4 3 2 2 3 3 3 2 1 0 0 0 0 0 0 0 0 0 0 0 0 0 0 0 0 0 1 2 1 1 1 2
7 9 9 8 9 11 10 7 4 1 1 2 2 1 1 2 3 2 1 0 0 0 0 0 0 0 0 0 0 0 0 0 0 0 0 0 0 1 2 2 2 2 2
6 7 9 10 9 7 5 3 1 0 0 1 1 0 1 1 1 1 0 0 0 0 0 0 0 0 0 0 0 0 0 0 0 0 0 0 0 0 1 1 3 3 3
6 7 9 9 8 4 2 1 0 0 0 0 1 1 0 0 0 1 1 0 0 0 0 0 0 0 0 0 0 0 0 0 0 0 0 0 0 0 0 1 2 2 1
7 8 9 9 6 3 1 0 0 1 1 1 2 2 1 0 0 1 2 1 0 0 0 0 0 0 0 0 0 0 0 0 0 0 0 0 0 0 0 0 1 1 0
8 9 10 9 5 2 0 0 0 1 1 1 2 2 1 0 0 1 1 1 0 0 0 0 0 0 0 0 0 0 0 0 0 0 0 0 0 0 0 0 0 0 0
8 9 11 9 4 1 0 0 0 0 0 0 1 1 0 0 0 0 0 0 0 0 0 0 0 0 0 0 0 0 0 0 0 0 0 0 0 0 0 0 0 0 0
8 9 9 7 3 1 0 0 0 0 0 0 0 0 0 0 0 0 0 0 0 0 0 0 0 0 0 0 0 0 0 0 0 0 0 0 0 0 0 0 0 0 0
7 7 6 4 3 1 0 1 1 1 0 0 0 0 0 0 0 0 0 0 0 0 0 0 0 0 0 0 0 0 0 0 0 0 0 0 0 0 0 0 0 0 0
4 3 2 1 1 1 0 1 1 1 0 0 0 0 0 0 0 0 0 0 0 0 0 0 0 0 0 0 0 0 0 0 0 0 0 0 0 0 0 0 0 0 0
1 1 0 0 0 0 0 0 0 0 0 0 0 0 0 0 0 0 0 0 0 0 0 0 0 0 0 0 0 0 0 0 0 0 0 0 0 0 0 0 0 0 0
1 1 1 1 0 0 0 0 0 0 0 0 0 0 0 0 0 0 0 0 0 0 0 0 0 0 0 0 0 0 0 0 0 0 0 0 0 0 0 0 0 0 0
2 3 3 1 0 0 0 0 0 0 0 0 0 0 0 0 0 0 0 0 0 0 0 0 0 0 0 0 0 0 0 0 0 0 0 0 0 0 0 0 0 0 0
4 5 3 1 0 0 0 0 0 0 0 0 0 0 0 0 0 0 0 0 0 0 0 0 0 0 0 0 0 0 0 0 0 0 0 0 0 0 0 0 0 0 0
5 5 3 1 0 0 0 0 0 0 0 0 0 0 0 0 0 0 0 0 0 0 0 0 0 0 0 0 0 0 0 0 0 0 0 0 0 0 0 0 0 0 0
3 3 1 0 0 0 0 0 0 0 0 0 0 0 0 0 0 0 0 0 0 0 0 0 0 0 0 0 0 0 0 0 0 0 0 0 0 0 0 0 0 0 0
1 1 0 0 0 0 0 0 0 0 0 0 0 0 0 0 0 0 0 0 0 0 0 0 0 0 0 0 0 0 0 0 0 0 0 0 0 0 0 0 0 0 0
0 0 0 0 0 0 0 0 0 0 0 0 0 0 0 0 0 0 0 0 0 0 0 0 0 0 0 0 0 0 0 0 0 0 0 0 0 0 0 0 0 0 0
0 0 0 0 0 0 0 0 0 0 0 0 0 0 0 0 0 0 0 0 0 0 0 0 0 0 0 0 0 0 0 0 0 0 0 0 0 0 0 0 0 0 0
0 0 0 0 0 0 0 0 0 0 0 0 0 0 0 0 0 0 0 0 0 0 0 0 0 0 0 0 0 0 0 0 0 0 0 0 0 0 0 0 0 0 0
Wind_Speed
6 5 5 4 4 4 5 5 5 4 4 3 2 2 2 1 1 1 2 1 1 1 2 2 2 2 2 3 4 4 4 4 2 4 4 4 4 3 3 3 3 4 4
6 5 4 4 4 4 5 5 5 4 3 2 1 1 1 1 1 1 2 1 1 1 1 2 2 2 2 3 3 3 3 3 2 3 4 3 3 3 3 3 3 3 3
6 6 5 5 5 5 5 4 4 4 3 3 2 2 2 2 2 2 2 2 2 2 2 2 2 3 3 3 3 4 4 3 3 3 4 3 3 1 2 3 2 2 2
6 5 5 5 5 4 4 4 4 4 3 3 2 2 2 1 1 1 1 1 1 2 2 2 2 3 3 2 3 3 4 4 4 3 4 5 4 3 2 3 2 2 2
5 5 5 5 5 5 5 4 4 4 3 3 2 2 1 1 1 1 2 1 2 2 2 2 2 2 2 2 3 3 4 3 4 4 3 4 4 6 4 4 3 2 2
5 5 5 4 4 5 5 5 5 4 3 3 2 1 1 2 2 1 1 1 1 1 2 2 2 2 2 2 3 3 3 3 4 4 4 3 3 3 4 4 4 3 2
5 5 5 5 5 5 5 4 5 4 3 3 2 2 1 2 2 1 1 0 0 1 2 3 2 2 2 2 2 2 3 3 3 4 3 3 3 3 4 4 3 3 2
5 5 5 5 5 5 5 4 4 4 4 3 3 2 1 1 1 1 0 0 1 2 2 2 2 2 2 2 2 3 2 2 3 3 4 4 3 3 4 4 3 3 3
5 5 5 5 5 5 5 4 4 4 3 3 3 2 1 1 2 1 0 1 1 1 2 2 2 3 3 3 3 2 2 2 3 3 3 3 3 3 4 4 4 4 4
5 5 5 5 5 4 4 3 3 3 3 2 2 2 1 1 1 1 2 2 2 2 2 3 3 3 3 3 3 3 3 3 3 3 3 4 3 3 3 4 4 5 5
5 6 5 5 5 5 4 3 3 3 3 3 2 2 1 1 1 1 2 1 2 2 2 2 2 3 3 3 3 4 3 3 3 3 3 3 4 4 3 3 3 4 4
5 6 6 5 5 4 4 3 3 3 3 2 2 2 2 2 1 2 1 1 1 1 2 2 2 3 3 3 3 3 3 3 4 4 4 4 3 4 4 3 3 3 3
5 6 6 5 4 4 3 3 2 2 2 2 2 2 1 1 2 2 1 1 1 1 2 2 2 3 3 3 3 3 4 4 4 4 4 4 4 4 3 4 3 3 2
5 5 5 4 4 3 2 2 2 2 2 2 2 2 1 1 1 1 1 1 1 1 1 2 2 2 3 4 4 3 3 4 4 4 4 4 4 5 4 3 3 3 3
5 5 5 4 3 3 2 2 2 2 3 2 2 2 1 2 1 1 1 1 1 1 2 2 2 3 3 4 6 4 4 4 4 3 3 3 4 5 5 4 3 3 3
5 5 5 4 3 3 2 2 2 2 2 2 2 2 2 1 1 1 1 1 1 2 2 2 3 3 4 5 6 7 4 4 4 4 4 2 1 1 2 3 4 5 4
5 5 5 4 3 3 2 2 2 2 2 2 2 2 2 1 1 0 1 1 1 1 2 2 3 3 4 3 5 7 5 4 4 4 4 4 3 3 2 2 5 4 4
4 5 4 4 3 3 3 2 2 2 2 2 2 2 1 1 1 1 1 1 1 1 2 2 2 2 3 2 4 7 5 3 3 4 4 4 4 5 5 4 2 1 1
4 4 4 4 4 3 3 3 2 2 2 2 2 2 2 2 1 1 1 1 1 1 1 2 2 2 1 2 4 8 4 2 3 4 4 5 4 5 7 4 2 1 1
5 4 4 4 4 3 3 3 3 2 2 2 2 2 2 2 2 2 1 1 1 1 2 2 2 3 2 2 3 8 4 3 2 2 1 3 4 6 7 4 3 2 1
6 5 5 4 4 4 3 3 2 2 2 2 2 2 1 1 1 1 1 1 1 2 2 2 2 2 2 1 1 5 5 4 4 3 2 3 3 4 5 5 3 3 4
7 6 5 4 4 3 3 3 2 2 2 2 2 2 1 0 1 0 1 1 2 2 1 1 2 1 0 1 0 2 5 7 5 4 4 4 4 5 5 4 3 4 5
7 6 5 5 4 3 3 3 3 2 2 3 2 2 1 0 0 1 1 2 2 2 2 1 2 2 1 1 3 3 4 5 5 4 4 5 5 5 4 3 4 4 3
6 5 5 5 4 3 3 2 2 2 2 2 2 2 2 1 1 1 2 2 2 2 3 3 3 2 2 2 1 1 2 4 5 4 3 6 7 6 4 3 3 3 1
5 5 4 4 4 3 3 3 3 2 2 2 2 2 1 1 1 1 2 3 3 4 4 4 4 4 3 4 6 6 5 6 6 7 5 4 2 2 2 1 1 2 2
5 5 4 4 4 3 3 2 3 3 2 2 2 1 1 1 2 1 1 1 2 2 4 5 6 4 3 4 5 5 6 7 7 7 5 3 3 3 2 2 2 2 2
Wind_Direction
167 163 165 161 163 165 163 164 162 157 164 162 174 167 153 143 138 113 92 84 56 31 337 333 340 318 316 305 290 280 268 261 266 273 272 261 252 247 248 255 259 252 250
170 168 169 170 179 180 173 171 170 160 168 151 154 132 128 146 116 89 96 74 55 24 359 350 331 340 317 308 305 288 279 272 268 276 276 261 240 226 234 239 230 251 246
183 174 179 187 188 186 182 178 167 158 163 157 168 148 160 180 163 149 115 70 55 51 26 11 3 344 320 333 321 307 287 276 266 255 265 266 255 243 220 239 236 229 230
185 182 178 180 185 180 173 166 157 150 150 161 172 183 202 198 141 138 95 89 64 43 33 10 10 340 330 334 313 336 310 289 276 259 250 265 279 261 246 218 216 226 235
182 180 177 176 177 171 164 154 148 141 140 148 157 201 209 163 140 147 127 140 92 62 44 23 1 330 326 344 331 324 312 307 301 286 274 262 257 250 255 251 236 234 229
174 166 160 160 161 161 156 149 146 135 137 148 150 157 145 137 138 154 143 169 103 72 52 23 2 333 345 341 326 317 312 315 309 299 286 277 269 260 252 254 245 244 243
159 155 152 154 152 152 152 152 144 133 127 124 116 127 147 167 164 177 147 322 49 48 37 12 2 349 343 326 321 311 320 312 308 298 297 294 285 283 273 264 257 254 257
138 138 135 136 135 137 140 142 137 125 122 113 105 117 145 173 111 102 354 18 12 34 27 357 3 357 341 327 323 297 310 317 310 311 314 296 288 281 276 274 265 256 245
132 127 120 117 120 124 122 126 127 122 121 115 122 128 123 83 86 126 188 69 51 42 24 3 9 7 355 343 318 325 320 318 305 307 305 301 305 289 281 272 262 260 259
127 122 114 107 101 104 106 109 125 133 135 137 135 119 121 121 126 129 68 51 38 25 7 11 15 10 357 347 331 326 346 327 325 326 332 315 304 298 282 273 266 263 265
133 129 122 116 112 113 113 120 126 130 142 142 134 119 108 102 96 82 80 67 46 23 4 5 11 7 358 355 341 338 337 335 337 328 322 314 316 305 295 281 270 259 249
134 133 129 126 124 120 119 127 129 137 149 138 129 113 102 94 82 71 61 72 60 22 13 1 9 6 6 359 345 339 342 340 341 336 329 320 314 307 298 293 283 274 265
136 136 134 131 128 123 129 128 139 141 139 133 126 110 105 97 80 56 29 38 59 40 25 12 11 5 1 355 348 344 342 346 343 335 329 326 323 312 308 293 282 270 256
142 140 137 134 127 124 126 133 136 143 142 127 113 103 93 96 84 61 36 28 28 23 20 13 9 1 3 359 351 350 349 346 344 337 331 330 327 322 315 297 285 276 257
144 145 148 141 132 127 139 140 133 140 145 140 124 99 78 79 80 67 47 33 15 8 12 4 4 6 9 12 356 344 345 343 336 334 336 346 347 350 330 320 311 287 266
152 150 150 150 149 150 149 141 136 140 143 139 130 101 87 80 56 48 37 20 19 10 0 357 352 0 24 28 352 329 334 334 338 343 342 334 299 316 264 284 297 299 281
155 153 153 152 155 158 155 148 144 146 152 142 130 111 109 106 89 60 27 11 17 19 3 3 356 9 37 22 347 330 319 336 346 342 335 339 3 325 321 238 226 240 247
151 149 149 148 150 151 153 155 151 158 154 139 122 109 115 98 87 88 50 19 12 6 349 351 348 358 46 37 331 314 295 329 340 339 342 344 346 353 332 314 303 285 234
144 141 142 139 140 144 148 145 141 137 140 124 98 84 76 77 76 57 37 21 356 342 312 328 328 337 42 33 323 311 305 332 346 343 350 344 354 1 330 308 306 299 270
130 135 138 134 139 146 152 151 144 145 143 123 106 94 77 65 57 43 0 351 331 315 308 334 324 328 354 49 327 318 307 340 341 353 7 34 3 350 333 315 311 305 301
133 137 138 138 138 146 154 151 148 145 138 129 119 107 94 91 78 40 337 312 304 325 317 319 322 337 357 73 338 327 318 332 335 351 9 44 26 340 326 310 322 321 304
136 140 140 134 136 150 159 153 141 129 135 134 130 122 127 161 115 168 297 307 306 285 285 301 307 319 50 13 28 302 313 319 322 332 356 30 0 328 314 312 330 301 279
137 143 144 139 143 157 167 154 136 143 146 148 145 145 144 140 242 258 266 278 278 289 311 319 335 350 11 118 191 234 268 288 299 328 346 318 295 286 262 255 276 272 260
144 151 152 149 147 154 159 149 149 154 154 153 157 177 189 196 183 278 297 316 328 326 329 341 346 346 336 331 345 274 234 233 253 278 256 238 250 254 269 249 230 242 286
151 154 156 155 148 147 144 146 149 159 159 163 176 194 214 227 258 291 336 325 351 350 320 328 326 322 327 20 3 328 326 333 347 325 296 285 277 261 232 241 255 255 226
153 156 160 160 153 151 148 154 166 173 179 190 207 225 234 253 271 263 237 274 274 240 246 266 289 305 304 302 301 300 297 298 308 300 288 295 297 297 298 283 247 242 262